[[{"header":{"parameterUnit":"m.s-1","parameterCategory":1,"la1":30.2991,"la2":30.254,"lo1":-89.0895,"lo2":-89.0444,"dy":0.0017,"dx":0.0017,"nx":28,"ny":28,"refTime":"2025-08-29T21:00:00:Z","depth":0,"parameterNumber":2,"parameterNumberName":"U-component_of_WINDS"},"data":[0,0,0,0,0,0,0,0,0,0,0,0,0,0,0,0,0,0,0,0,0,0,0,0,0,0,0,0,0,0,0,0,0,0,0,0,0,0,0,0,0,0,0,0,0,0,0,0,0,0,0,0,0,0,0,0,0,0,-0.0555,-0.0556,0,-0.0606,-0.0606,-0.0607,-0.0537,-0.0534,-0.0532,-0.0529,-0.0593,-0.0597,-0.0601,0,0,0,0,0,0,0,0,0,0,0,0,0,-0.0409,-0.0412,-0.0555,-0.0556,-0.0556,-0.0606,-0.0606,-0.0607,-0.0537,-0.0534,-0.0531,-0.0528,-0.0592,-0.0596,-0.0601,0,0,0,0,0,0,0,0,0,0,0,0,0,-0.0468,-0.0413,-0.0555,-0.0527,-0.0525,-0.0605,-0.0606,-0.0607,-0.0538,-0.0534,-0.053,-0.0527,-0.059,-0.0596,-0.0602,-0.0716,0,0,-0.0621,-0.0623,0,0,0,0,0,0,0,0,-0.0465,-0.0473,-0.053,-0.0529,-0.0527,-0.0561,-0.0578,-0.0644,-0.0539,-0.0533,-0.0529,-0.0525,-0.0586,-0.0592,-0.0611,-0.0719,-0.0722,-0.0621,-0.0625,-0.0628,-0.0629,0,0,0,0,0,0,0,-0.0461,-0.0471,-0.0575,-0.0531,-0.0529,-0.0516,-0.052,-0.059,-0.0581,-0.0533,-0.0528,-0.0535,-0.0585,-0.0605,-0.0612,-0.0723,-0.0621,-0.0626,-0.063,-0.0633,-0.093,-0.0934,0,0,0,0,0,0,-0.0458,-0.0468,-0.0574,-0.0577,-0.0485,-0.0521,-0.0526,-0.0554,-0.058,-0.058,-0.0538,-0.0531,-0.0596,-0.0605,-0.0614,-0.075,-0.0628,-0.0633,-0.0637,-0.0926,-0.0931,-0.0935,0,0,0,0,0,0,-0.0455,-0.0468,-0.0572,-0.0521,-0.0533,-0.0528,-0.056,-0.0557,-0.0577,-0.0583,-0.0582,-0.056,-0.0594,-0.0605,-0.0691,-0.0752,-0.0636,-0.0642,-0.0921,-0.0927,-0.0933,-0.1024,0,0,0,0,0,0,-0.0451,-0.0468,-0.0508,-0.0522,-0.0536,-0.0645,-0.0564,-0.0561,-0.0586,-0.0578,-0.0603,-0.0604,-0.0592,-0.0682,-0.0697,-0.0758,-0.0646,-0.0915,-0.0924,-0.0931,-0.1016,-0.1033,-0.1047,0,0,0,0,0,-0.0446,-0.0534,-0.0511,-0.0524,-0.0586,-0.0648,-0.0657,-0.0637,-0.0591,-0.0634,-0.0638,-0.0603,-0.0742,-0.0691,-0.0707,-0.0771,-0.0911,-0.0921,-0.093,-0.1009,-0.1029,-0.1047,0,0,0,0,0,0,-0.0531,-0.0535,-0.0509,-0.0603,-0.0626,-0.0636,-0.0689,-0.066,-0.0698,-0.069,-0.0667,-0.0674,-0.0766,-0.0777,-0.072,-0.0884,-0.082,-0.0833,-0.0874,-0.0893,-0.0909,-0.0906,-0.0651,0,0,0,0,0,-0.056,-0.0607,-0.0609,-0.0692,-0.0704,-0.0695,-0.0722,-0.0704,-0.0728,-0.0739,-0.0749,-0.0777,-0.0827,-0.086,-0.0906,-0.1016,-0.1023,-0.1068,-0.1084,-0.1097,-0.111,-0.1171,-0.1192,-0.0967,-0.0967,-0.0966,0,0,-0.0622,-0.063,-0.0662,-0.0709,-0.0725,-0.0777,-0.0704,-0.0762,-0.0802,-0.0749,-0.0829,-0.0838,-0.0868,-0.0967,-0.1011,-0.0979,-0.1173,-0.1109,-0.1119,-0.1125,-0.1183,-0.1205,-0.1224,-0.0973,-0.0972,-0.0971,0,0,-0.0762,-0.0771,-0.0841,-0.0857,-0.088,-0.0873,-0.089,-0.0905,-0.0908,-0.0988,-0.0949,-0.0998,-0.1084,-0.1107,-0.1131,-0.1279,-0.125,-0.1295,-0.1379,-0.1439,-0.1457,-0.1473,-0.1529,-0.1548,-0.1307,-0.1307,-0.1307,0,-0.0837,-0.0911,-0.0883,-0.0944,-0.0968,-0.0917,-0.0991,-0.1009,-0.1048,-0.1067,-0.1029,-0.1136,-0.1153,-0.1257,-0.1293,-0.1313,-0.1335,-0.1293,-0.1456,-0.1471,-0.1486,-0.1539,-0.156,-0.1313,-0.1312,-0.1312,-0.1311,0,-0.1003,-0.1056,-0.1111,-0.1145,-0.1174,-0.1242,-0.1228,-0.1262,-0.1242,-0.1241,-0.1325,-0.1342,-0.1392,-0.1415,-0.1397,-0.1518,-0.1498,-0.1458,-0.1394,-0.1513,-0.1563,-0.1583,-0.1321,-0.1319,-0.1317,-0.1316,0,0,-0.12,-0.1216,-0.1237,-0.1253,-0.1274,-0.1316,-0.1382,-0.1426,-0.1458,-0.1486,-0.1544,-0.1617,-0.1581,-0.1608,-0.1592,-0.1645,-0.1765,-0.16,-0.16,-0.1632,-0.1902,-0.1933,-0.1957,-0.1744,-0.1747,-0.175,-0.19,0,-0.1341,-0.1451,-0.1428,-0.1539,-0.1588,-0.1541,-0.1599,-0.1621,-0.1621,-0.1666,-0.1668,-0.1721,-0.1668,-0.1684,-0.1733,-0.1739,-0.1819,-0.1728,-0.1802,-0.1805,-0.1798,-0.1982,-0.2015,-0.2156,-0.1919,-0.1922,-0.1925,0,-0.1521,-0.1552,-0.1666,-0.1679,-0.17,-0.1752,-0.1792,-0.1834,-0.1859,-0.1856,-0.1885,-0.186,-0.193,-0.1862,-0.1961,-0.1899,-0.1928,-0.1936,-0.1941,-0.195,-0.1874,-0.1999,-0.22,-0.2222,-0.1954,-0.1952,-0.195,0,-0.1656,-0.1727,-0.1804,-0.1819,-0.1836,-0.1874,-0.1884,-0.1904,-0.1933,-0.1969,-0.1988,-0.2033,-0.2059,-0.2096,-0.2086,-0.2037,-0.2189,-0.2119,-0.2192,-0.2192,-0.2228,-0.2227,-0.244,-0.2242,-0.2242,-0.2241,-0.2241,0,-0.1818,-0.1891,-0.1865,-0.1914,-0.1994,-0.1968,-0.2051,-0.2055,-0.2074,-0.2125,-0.2087,-0.2137,-0.2119,-0.2169,-0.2162,-0.2246,-0.2258,-0.226,-0.2258,-0.2265,-0.2265,-0.2286,-0.2277,-0.2247,-0.2246,-0.2245,-0.2244,0,-0.1984,-0.1969,-0.2051,-0.2059,-0.2064,-0.2123,-0.2132,-0.218,-0.2176,-0.2242,-0.2256,-0.2252,-0.2309,-0.2301,-0.2366,-0.2361,-0.2467,-0.2452,-0.2458,-0.2455,-0.253,-0.2524,-0.2766,-0.2798,-0.2577,-0.2579,-0.2581,0,-0.2089,-0.2143,-0.2157,-0.2186,-0.2198,-0.2246,-0.2274,-0.2251,-0.2283,-0.2315,-0.236,-0.2412,-0.2453,-0.2547,-0.2553,-0.2603,-0.259,-0.2671,-0.2598,-0.2604,-0.2595,-0.2593,-0.26,-0.2687,-0.269,-0.2692,-0.2693,0,-0.2279,-0.2269,-0.2308,-0.2346,-0.238,-0.241,-0.2436,-0.2464,-0.2444,-0.2482,-0.2537,-0.2569,-0.2633,-0.2687,-0.2734,-0.2748,-0.272,-0.2716,-0.2736,-0.2745,-0.2748,-0.275,-0.2501,-0.2711,-0.2709,-0.2708,-0.2707,-0.2706,-0.242,-0.2466,-0.2483,-0.2529,-0.2545,-0.2571,-0.2616,-0.2616,-0.2661,-0.2709,-0.2693,-0.2757,-0.2783,-0.2841,-0.2861,-0.2913,-0.2884,-0.2913,-0.292,-0.2929,-0.2939,-0.2736,-0.2922,-0.2921,-0.2921,-0.292,-0.292,0,-0.261,-0.2618,-0.266,-0.2696,-0.2734,-0.2697,-0.2725,-0.276,-0.2815,-0.2839,-0.2879,-0.2945,-0.2997,-0.3006,-0.3057,-0.3097,-0.3086,-0.3112,-0.3111,-0.3115,-0.296,-0.2939,-0.3121,-0.3121,-0.3121,-0.3121,-0.312,-0.312,-0.2714,-0.2791,-0.2783,-0.2869,-0.2877,-0.2936,-0.2955,-0.298,-0.2999,-0.3072,-0.3114,-0.3117,-0.3137,-0.3188,-0.3236,-0.3238,-0.326,-0.3292,-0.3289,-0.3146,-0.3126,-0.3107,-0.3087,-0.3296,-0.3297,-0.344,-0.3441,-0.3442]},{"header":{"parameterUnit":"m.s-1","parameterCategory":1,"la1":30.2991,"la2":30.254,"lo1":-89.0895,"lo2":-89.0444,"dy":0.0017,"dx":0.0017,"nx":28,"ny":28,"refTime":"2025-08-29T21:00:00:Z","depth":0,"parameterNumber":3,"parameterNumberName":"V-component_of_WINDS"},"data":[0,0,0,0,0,0,0,0,0,0,0,0,0,0,0,0,0,0,0,0,0,0,0,0,0,0,0,0,0,0,0,0,0,0,0,0,0,0,0,0,0,0,0,0,0,0,0,0,0,0,0,0,0,0,0,0,0,0,-1.2748,-1.2746,0,-1.2527,-1.2525,-1.2522,-1.2406,-1.2406,-1.2406,-1.2405,-1.2172,-1.2166,-1.216,0,0,0,0,0,0,0,0,0,0,0,0,0,-1.3065,-1.306,-1.2749,-1.2746,-1.2743,-1.2528,-1.2525,-1.2521,-1.2406,-1.2406,-1.2405,-1.2405,-1.2174,-1.2166,-1.2159,0,0,0,0,0,0,0,0,0,0,0,0,0,-1.2894,-1.3058,-1.2749,-1.266,-1.2649,-1.2528,-1.2524,-1.2521,-1.2406,-1.2406,-1.2405,-1.2405,-1.2176,-1.2167,-1.2158,-1.2107,0,0,-1.213,-1.2126,0,0,0,0,0,0,0,0,-1.2904,-1.2883,-1.2676,-1.2666,-1.2654,-1.2494,-1.255,-1.2382,-1.2406,-1.2498,-1.2405,-1.2405,-1.2279,-1.2261,-1.222,-1.2096,-1.2086,-1.213,-1.2124,-1.212,-1.2118,0,0,0,0,0,0,0,-1.2916,-1.2891,-1.2661,-1.2673,-1.2659,-1.2629,-1.2604,-1.2518,-1.2392,-1.249,-1.2481,-1.2457,-1.2273,-1.2229,-1.2213,-1.2082,-1.213,-1.2122,-1.2116,-1.2113,-1.1906,-1.1906,0,0,0,0,0,0,-1.2943,-1.2902,-1.2668,-1.2654,-1.2781,-1.2623,-1.2596,-1.2545,-1.2393,-1.237,-1.2457,-1.2452,-1.2245,-1.2224,-1.2205,-1.2136,-1.212,-1.2112,-1.2106,-1.1906,-1.1906,-1.1906,0,0,0,0,0,0,-1.2951,-1.2923,-1.2677,-1.2776,-1.2742,-1.2618,-1.2563,-1.2541,-1.2497,-1.2368,-1.2345,-1.2436,-1.2244,-1.2218,-1.2133,-1.2126,-1.2108,-1.2099,-1.1906,-1.1906,-1.1906,-1.1997,0,0,0,0,0,0,-1.296,-1.2927,-1.2907,-1.2776,-1.2737,-1.261,-1.2562,-1.2537,-1.2483,-1.2474,-1.2342,-1.232,-1.2241,-1.2147,-1.2124,-1.2113,-1.2092,-1.1906,-1.1906,-1.1906,-1.1994,-1.2,-1.2005,0,0,0,0,0,-1.2972,-1.294,-1.2907,-1.2879,-1.2711,-1.261,-1.2588,-1.25,-1.2483,-1.2461,-1.2379,-1.2324,-1.2131,-1.2139,-1.2112,-1.2099,-1.1906,-1.1906,-1.1906,-1.1991,-1.1999,-1.2005,0,0,0,0,0,0,-1.307,-1.2921,-1.2883,-1.2808,-1.2723,-1.2591,-1.2561,-1.251,-1.2427,-1.2422,-1.2314,-1.2285,-1.2211,-1.2146,-1.2158,-1.2041,-1.2013,-1.2008,-1.2087,-1.2093,-1.2098,-1.2115,-1.2085,0,0,0,0,0,-1.3084,-1.3017,-1.2889,-1.2835,-1.2795,-1.2686,-1.2639,-1.2579,-1.2486,-1.2448,-1.2359,-1.2269,-1.2188,-1.2137,-1.2055,-1.1984,-1.1954,-1.1961,-1.1967,-1.1972,-1.1969,-1.1927,-1.1929,-1.1906,-1.1906,-1.1906,0,0,-1.311,-1.302,-1.2984,-1.2853,-1.278,-1.2712,-1.2656,-1.2586,-1.2533,-1.2437,-1.2352,-1.2284,-1.2176,-1.2099,-1.206,-1.2042,-1.1968,-1.1972,-1.1977,-1.197,-1.1928,-1.193,-1.1932,-1.1906,-1.1906,-1.1906,0,0,-1.3122,-1.3048,-1.2996,-1.2925,-1.2817,-1.2745,-1.2733,-1.2608,-1.256,-1.2474,-1.2401,-1.2336,-1.2199,-1.2125,-1.207,-1.2058,-1.2005,-1.2034,-1.2063,-1.2024,-1.2026,-1.2027,-1.2023,-1.2023,-1.2031,-1.2031,-1.2031,0,-1.3168,-1.3064,-1.2974,-1.2909,-1.2854,-1.2766,-1.2712,-1.2646,-1.2516,-1.2479,-1.2461,-1.2288,-1.2209,-1.2114,-1.2112,-1.207,-1.2052,-1.2048,-1.2033,-1.2034,-1.2033,-1.2028,-1.2027,-1.2035,-1.2035,-1.2035,-1.2034,0,-1.3126,-1.3055,-1.3025,-1.2905,-1.2846,-1.2786,-1.2686,-1.2637,-1.2583,-1.2513,-1.2426,-1.2329,-1.2227,-1.22,-1.2145,-1.2097,-1.209,-1.2054,-1.2023,-1.2041,-1.2035,-1.2032,-1.2042,-1.204,-1.2039,-1.2038,0,0,-1.3193,-1.3026,-1.3017,-1.2962,-1.2837,-1.2779,-1.2716,-1.2618,-1.2579,-1.2492,-1.2435,-1.2322,-1.2289,-1.2227,-1.2163,-1.2129,-1.2127,-1.2097,-1.2093,-1.2107,-1.2069,-1.2097,-1.2097,-1.2091,-1.209,-1.209,-1.2079,0,-1.3188,-1.3073,-1.2991,-1.2906,-1.284,-1.2757,-1.2701,-1.2618,-1.2551,-1.2483,-1.2408,-1.233,-1.2292,-1.2254,-1.2217,-1.2135,-1.2118,-1.2135,-1.2037,-1.2034,-1.2067,-1.2093,-1.2122,-1.2116,-1.2075,-1.2075,-1.2075,0,-1.3167,-1.3087,-1.2997,-1.2881,-1.285,-1.2802,-1.2707,-1.2644,-1.2547,-1.2501,-1.2433,-1.2368,-1.2296,-1.2273,-1.2172,-1.2186,-1.2141,-1.2095,-1.2092,-1.2079,-1.2056,-1.2082,-1.2111,-1.2111,-1.207,-1.207,-1.207,0,-1.3227,-1.3095,-1.3025,-1.298,-1.2843,-1.2811,-1.2752,-1.2656,-1.2603,-1.2519,-1.2484,-1.2392,-1.2342,-1.2272,-1.2184,-1.2175,-1.2093,-1.2061,-1.2051,-1.2054,-1.2037,-1.204,-1.2061,-1.2008,-1.2008,-1.2008,-1.2008,0,-1.323,-1.3179,-1.305,-1.3007,-1.2946,-1.2852,-1.2794,-1.2727,-1.2643,-1.2584,-1.2506,-1.2452,-1.2339,-1.2271,-1.2201,-1.2129,-1.2106,-1.2066,-1.2048,-1.2074,-1.2079,-1.2042,-1.2041,-1.2008,-1.2008,-1.2008,-1.2008,0,-1.3286,-1.3198,-1.3116,-1.2994,-1.2962,-1.2923,-1.2817,-1.2771,-1.2701,-1.2628,-1.2605,-1.2494,-1.241,-1.2316,-1.22,-1.2153,-1.2086,-1.2059,-1.2119,-1.2109,-1.2105,-1.2107,-1.2104,-1.2099,-1.205,-1.2051,-1.2051,0,-1.3294,-1.3253,-1.3128,-1.3084,-1.3028,-1.2958,-1.2905,-1.2811,-1.2758,-1.2647,-1.2615,-1.2526,-1.245,-1.232,-1.2227,-1.2139,-1.211,-1.2115,-1.2096,-1.2123,-1.2111,-1.2115,-1.211,-1.2121,-1.2122,-1.2122,-1.2123,0,-1.3319,-1.3278,-1.3206,-1.3119,-1.3058,-1.2984,-1.2907,-1.2875,-1.2765,-1.271,-1.2625,-1.2566,-1.245,-1.2362,-1.2263,-1.2199,-1.2143,-1.213,-1.2123,-1.2148,-1.2185,-1.2166,-1.2135,-1.213,-1.213,-1.2129,-1.2129,-1.2128,-1.3351,-1.3311,-1.3218,-1.314,-1.3072,-1.3003,-1.2954,-1.2879,-1.2808,-1.2707,-1.2655,-1.2572,-1.2477,-1.2338,-1.2277,-1.2209,-1.219,-1.218,-1.2177,-1.2176,-1.2184,-1.2197,-1.219,-1.219,-1.2189,-1.2189,-1.2189,0,-1.3372,-1.3308,-1.3238,-1.3134,-1.3073,-1.3028,-1.294,-1.2892,-1.282,-1.2737,-1.2665,-1.2568,-1.2483,-1.2386,-1.2295,-1.2259,-1.2231,-1.2239,-1.224,-1.2227,-1.2205,-1.2221,-1.2263,-1.2263,-1.2263,-1.2263,-1.2263,-1.2263,-1.3376,-1.3307,-1.3255,-1.3151,-1.3087,-1.3006,-1.296,-1.2895,-1.2829,-1.2726,-1.2656,-1.2594,-1.2505,-1.2408,-1.2328,-1.2301,-1.2271,-1.2287,-1.2253,-1.2234,-1.2228,-1.2222,-1.2236,-1.2281,-1.2281,-1.228,-1.228,-1.228]}]]